Temperature
7 7 7 7 7 7 7 9 9 10 10 10 10 9 8 7 6 6 6 6 6 6 6 6 6 6 6 6 6 6 6 6 6 5 5 5 5 5 5 5 5 4 4 4
5 6 6 6 7 7 7 8 8 8 9 10 9 7 7 6 6 6 5 5 5 6 6 6 6 5 5 5 5 5 5 5 5 5 5 5 4 4 4 4 4 4 4 4
5 5 5 6 7 7 7 7 8 8 9 8 7 7 7 6 5 5 5 5 5 5 5 5 5 5 5 5 5 5 5 4 4 4 4 4 4 4 4 4 3 3 3 3
4 4 5 7 6 7 7 7 7 7 7 7 6 5 5 5 5 4 4 4 5 5 5 5 5 5 5 4 4 4 4 4 4 4 4 3 3 3 3 3 3 3 3 3
3 5 5 6 5 5 5 5 5 5 5 5 4 4 4 4 4 4 4 4 4 4 5 5 4 4 4 4 4 4 4 4 4 3 3 3 3 3 3 2 2 2 2 2
3 4 5 6 4 4 5 5 5 5 5 4 4 5 5 3 3 3 3 3 4 4 4 4 4 4 4 3 3 3 3 3 3 3 3 3 2 2 2 2 2 2 2 2
3 3 5 4 3 4 5 5 4 4 4 4 4 4 3 2 2 2 3 3 3 3 3 3 3 3 3 3 3 3 3 3 3 2 2 2 2 2 1 1 1 1 1 1
3 3 4 3 3 4 4 3 2 2 2 2 2 1 1 1 1 1 2 2 2 2 2 2 2 2 2 2 2 2 2 2 2 2 2 1 1 1 1 1 1 0 0 0
3 3 2 1 1 1 1 1 2 2 1 1 1 1 0 0 0 1 1 1 1 1 1 2 2 2 2 2 2 2 2 1 1 1 1 1 1 1 0 0 -0 -0 -0 -0
1 1 0 -0 -0 0 1 1 1 1 1 1 0 0 0 0 -0 0 0 1 1 1 1 1 1 1 1 1 1 1 1 1 1 1 0 0 0 0 -0 -0 -1 -1 -1 -1
0 0 -0 -0 -0 0 0 0 -0 0 -0 0 -0 -0 -0 -0 -0 -0 -0 -0 -0 0 0 0 0 0 0 0 0 0 0 -0 -0 -0 -0 -1 -1 -1 -1 -1 -1 -1 -1 -1
0 0 0 -0 -1 -0 -1 -1 -1 -1 -1 -1 -1 -1 -1 -1 -1 -1 -1 -1 -1 -1 -0 -0 -0 -0 -0 -0 -0 -1 -1 -1 -1 -1 -1 -1 -1 -1 -1 -1 -1 -1 -2 -2
-1 -1 -1 -1 -1 -1 -1 -1 -1 -1 -1 -1 -1 -1 -1 -1 -1 -1 -1 -1 -1 -1 -1 -1 -1 -1 -1 -1 -1 -1 -1 -1 -1 -2 -2 -2 -2 -2 -2 -2 -2 -2 -2 -2
-2 -1 -2 -2 -2 -2 -2 -2 -2 -2 -2 -2 -2 -2 -2 -2 -2 -2 -2 -2 -1 -1 -2 -1 -1 -1 -1 -2 -2 -2 -2 -2 -2 -2 -2 -3 -3 -3 -3 -3 -3 -3 -2 -2
-2 -2 -2 -2 -2 -2 -2 -2 -2 -2 -2 -2 -2 -2 -2 -2 -2 -2 -2 -2 -2 -2 -2 -2 -2 -2 -2 -2 -2 -2 -2 -2 -3 -3 -3 -3 -3 -3 -3 -3 -3 -3 -3 -3
-3 -3 -3 -3 -3 -3 -3 -3 -3 -3 -3 -3 -3 -3 -2 -3 -3 -2 -2 -2 -2 -2 -2 -2 -2 -2 -2 -2 -3 -3 -3 -3 -3 -3 -3 -4 -4 -4 -4 -4 -4 -4 -4 -4
-4 -4 -4 -4 -3 -3 -3 -3 -3 -3 -3 -3 -3 -3 -3 -3 -3 -3 -3 -3 -3 -3 -3 -3 -3 -3 -3 -3 -3 -3 -3 -3 -4 -4 -4 -4 -4 -4 -4 -4 -4 -4 -4 -4
-4 -4 -4 -4 -4 -4 -4 -4 -4 -4 -4 -4 -4 -3 -3 -3 -3 -3 -3 -3 -3 -3 -3 -3 -3 -3 -4 -4 -4 -4 -4 -4 -4 -4 -4 -4 -5 -5 -5 -5 -5 -5 -5 -5
-4 -4 -4 -4 -4 -4 -4 -4 -4 -4 -4 -4 -4 -4 -4 -4 -4 -4 -4 -4 -4 -4 -4 -4 -4 -4 -4 -4 -4 -4 -4 -4 -5 -5 -5 -5 -5 -5 -5 -5 -5 -5 -5 -5
-4 -4 -4 -4 -4 -4 -4 -4 -4 -4 -4 -4 -4 -4 -4 -4 -5 -5 -4 -4 -5 -5 -5 -5 -5 -5 -5 -5 -5 -5 -5 -5 -5 -5 -5 -5 -5 -5 -6 -6 -6 -6 -6 -6
-5 -5 -5 -5 -5 -5 -5 -5 -5 -5 -5 -5 -5 -5 -5 -5 -5 -5 -5 -5 -5 -5 -5 -5 -5 -5 -5 -5 -5 -5 -5 -5 -5 -5 -5 -6 -6 -6 -6 -6 -6 -6 -6 -6
-5 -5 -5 -5 -5 -5 -5 -5 -5 -5 -5 -5 -5 -5 -5 -5 -5 -6 -6 -6 -6 -6 -6 -6 -6 -6 -6 -6 -6 -6 -6 -6 -6 -6 -6 -6 -6 -6 -6 -6 -6 -6 -6 -6
-6 -6 -6 -6 -6 -6 -6 -6 -6 -6 -6 -6 -6 -6 -6 -6 -6 -6 -6 -6 -6 -6 -6 -6 -6 -6 -6 -6 -6 -6 -6 -6 -6 -6 -6 -6 -7 -7 -7 -7 -7 -7 -7 -7
-6 -6 -6 -6 -6 -6 -6 -6 -6 -6 -6 -6 -6 -6 -6 -6 -6 -7 -7 -7 -7 -7 -7 -7 -7 -7 -7 -7 -7 -7 -7 -7 -7 -7 -7 -7 -7 -7 -7 -7 -7 -7 -7 -7
-7 -7 -7 -7 -7 -7 -7 -7 -7 -7 -7 -7 -7 -7 -7 -7 -7 -7 -7 -7 -7 -7 -7 -7 -7 -7 -7 -7 -7 -7 -7 -7 -7 -7 -7 -7 -7 -7 -7 -7 -7 -7 -7 -7
-8 -8 -8 -8 -8 -8 -8 -8 -8 -8 -8 -7 -7 -7 -7 -7 -7 -7 -7 -7 -7 -7 -7 -7 -7 -7 -7 -7 -7 -7 -7 -7 -7 -7 -7 -7 -7 -7 -7 -7 -7 -7 -7 -7
-8 -8 -8 -8 -8 -8 -8 -8 -8 -8 -8 -8 -8 -8 -8 -8 -8 -8 -8 -8 -8 -8 -8 -8 -8 -8 -8 -8 -8 -8 -7 -7 -7 -7 -7 -7 -7 -7 -7 -8 -8 -8 -7 -7
Wind_Speed
11 9 9 11 14 16 17 16 13 14 14 13 9 7 4 3 4 4 4 4 4 5 4 5 4 4 4 5 5 5 4 4 4 4 4 4 4 4 4 5 5 5 5 6
8 9 10 12 17 19 19 17 17 15 15 8 6 5 5 5 5 4 4 4 4 4 4 4 4 4 5 4 4 4 4 4 4 3 4 4 4 4 4 4 4 5 5 6
8 7 7 13 15 17 14 14 14 16 13 6 6 7 8 6 6 5 4 4 4 4 4 4 4 4 4 4 4 4 4 4 3 4 4 4 4 5 5 5 5 5 6 6
5 6 11 6 4 8 12 11 10 7 6 7 6 4 5 5 5 4 3 3 4 3 3 3 3 3 3 4 4 4 4 4 4 4 4 4 5 5 6 5 5 6 6 7
5 7 8 5 3 5 7 8 7 8 6 4 2 1 3 3 3 3 3 2 2 2 2 3 3 3 3 4 4 4 4 4 4 4 4 5 5 6 5 5 6 6 6 7
5 6 7 3 2 4 5 7 4 6 7 6 5 4 4 2 1 1 0 1 2 2 2 3 2 3 4 4 4 4 4 4 4 4 5 5 5 5 5 5 6 6 6 7
7 7 6 3 3 3 7 4 3 6 6 7 6 3 2 2 1 1 1 2 3 3 2 2 2 3 3 3 3 3 3 3 3 4 5 5 5 5 5 5 5 6 7 7
5 6 5 2 2 4 2 1 3 4 4 3 3 4 3 2 2 2 2 2 2 2 2 1 1 2 2 3 2 2 2 3 4 4 4 4 4 5 5 5 6 6 6 7
3 2 3 2 1 2 1 1 2 3 3 5 5 4 3 2 1 2 2 2 2 2 2 1 0 1 2 2 1 2 2 3 4 4 4 4 5 5 5 5 5 6 6 6
1 2 3 4 4 3 3 3 3 3 4 5 4 3 2 2 1 1 2 1 1 1 1 1 1 1 2 2 2 2 3 4 4 4 4 4 4 4 5 5 6 6 6 6
1 2 3 4 4 4 5 5 5 5 4 3 4 3 2 1 1 1 1 1 1 1 0 1 2 2 3 2 2 3 4 4 4 4 5 5 5 5 6 7 7 7 7 7
2 2 1 2 3 3 5 4 4 4 4 3 3 2 1 1 1 1 1 1 1 1 2 2 2 3 3 3 3 3 4 4 4 4 4 4 5 5 6 8 8 10 10 10
2 2 2 2 3 4 4 4 4 4 3 3 2 1 1 1 1 1 1 2 2 2 3 3 3 4 4 3 3 4 5 5 4 4 4 5 5 5 6 5 7 9 10 11
2 2 3 3 3 4 4 4 4 4 3 2 2 2 1 1 1 1 2 2 3 3 3 4 4 4 4 4 4 4 5 5 5 5 5 5 5 6 6 6 6 6 7 9
4 3 2 2 3 4 3 4 4 3 3 3 2 2 2 1 2 3 3 3 3 3 4 4 5 5 5 4 4 5 5 4 4 4 5 5 5 5 5 6 6 6 6 6
3 4 4 4 3 3 3 3 2 2 3 3 3 3 2 2 3 3 4 3 4 5 5 5 6 6 5 4 5 4 4 5 5 5 5 5 5 5 5 6 6 6 6 6
3 3 3 3 3 3 3 2 2 2 3 3 3 3 3 3 4 4 4 5 5 5 5 5 6 6 5 5 5 4 4 5 5 5 5 5 5 6 6 6 6 6 7 7
2 1 1 1 1 2 3 3 3 3 3 3 3 3 3 3 4 5 6 6 5 5 5 5 5 5 5 5 5 4 4 4 4 5 5 5 6 6 6 6 7 7 7 7
3 3 3 3 2 2 3 3 4 4 3 3 3 4 4 4 5 6 6 6 6 6 6 5 6 6 6 5 5 4 4 5 5 5 5 6 7 6 6 6 7 7 7 6
3 3 3 3 3 3 3 4 4 4 4 4 4 4 5 5 5 6 6 6 5 5 6 7 6 6 6 5 6 4 5 5 5 5 5 5 6 6 6 7 7 7 6 6
4 4 4 4 4 4 4 4 4 4 5 4 4 5 6 6 6 5 5 6 5 5 6 7 6 5 5 5 6 5 5 5 5 5 5 6 6 6 7 7 7 6 6 6
5 5 5 5 5 5 5 4 4 5 5 5 5 5 6 6 6 6 6 5 6 7 6 5 5 6 7 7 5 5 5 5 5 5 5 6 6 6 6 7 7 6 6 6
5 5 5 5 5 6 6 5 5 5 5 5 5 5 6 6 5 5 6 5 5 8 6 5 7 9 9 6 5 5 5 5 5 5 6 6 6 6 6 7 6 6 6 6
6 6 6 6 5 5 6 6 5 5 5 5 5 5 5 5 4 4 5 7 8 9 6 7 9 9 8 4 4 5 5 5 5 5 5 5 5 5 6 6 6 6 6 6
6 6 6 5 5 5 5 5 5 5 5 4 4 4 4 3 4 5 5 6 8 8 6 6 8 8 5 4 4 5 5 5 5 5 5 5 5 5 5 5 5 6 6 6
6 5 5 5 4 4 4 4 4 4 4 4 4 4 4 4 5 5 5 6 7 7 6 5 5 5 4 4 4 4 4 5 5 5 5 5 5 5 5 5 6 5 5 5
6 5 4 4 4 4 4 4 4 5 5 5 5 5 5 5 5 5 5 5 5 5 5 4 4 4 4 4 4 4 4 4 4 4 4 4 4 5 5 6 5 5 5 5
Wind_Direction
257 258 224 227 223 214 218 226 231 239 239 238 233 231 220 197 177 171 175 174 170 171 169 167 167 170 172 172 168 170 174 182 190 192 192 195 197 203 206 210 214 216 220 224
254 248 237 243 236 226 227 231 239 247 253 252 237 214 217 211 196 195 201 197 186 182 181 178 178 178 178 179 174 175 181 190 192 194 198 203 206 208 212 219 221 220 223 227
247 243 248 247 234 222 221 224 226 235 241 214 216 212 216 211 204 211 213 212 200 195 194 193 189 181 180 178 171 177 185 191 195 199 206 212 211 214 219 223 227 231 232 234
238 226 232 242 244 224 222 227 226 235 226 210 217 226 226 206 196 208 214 213 203 198 190 188 180 175 171 168 175 184 191 198 202 206 213 215 215 221 226 226 228 233 234 237
218 234 254 262 244 211 214 230 227 223 218 213 178 202 219 194 193 209 223 214 195 190 181 175 173 166 166 174 183 194 202 207 212 214 220 224 227 231 233 231 234 238 239 238
215 227 239 256 275 244 206 230 222 208 204 197 180 215 218 162 162 175 161 146 144 145 153 159 162 165 174 186 194 209 217 222 221 221 225 230 236 240 240 235 238 242 245 244
227 235 256 302 300 185 204 237 191 198 198 200 212 220 169 150 133 110 112 119 121 124 134 149 157 168 182 200 217 226 231 233 234 232 232 236 239 240 238 238 241 244 249 250
224 228 246 348 156 202 273 60 152 165 178 176 143 122 125 119 111 97 103 107 117 118 109 105 148 171 194 225 237 233 235 240 244 245 243 238 236 241 241 239 243 248 252 256
215 238 355 0 320 338 31 89 113 136 135 128 125 130 127 118 106 93 100 102 109 112 90 64 107 190 220 259 263 247 249 254 257 256 251 244 241 242 245 243 244 249 250 254
234 315 1 6 15 41 58 65 72 92 109 119 121 121 111 99 98 92 88 93 99 95 75 7 357 318 286 298 286 258 260 266 264 258 257 253 250 243 242 244 247 251 253 256
274 323 17 17 27 55 66 71 77 78 78 100 107 100 102 101 98 90 75 74 87 88 360 327 334 324 312 304 288 270 268 265 262 257 255 257 258 256 253 252 250 252 255 256
269 307 340 335 12 56 67 62 66 72 62 60 74 81 86 78 60 53 36 32 27 354 333 323 323 317 314 303 277 265 266 266 264 260 261 262 266 274 264 254 260 260 261 261
299 13 47 15 24 40 53 51 52 60 61 49 38 48 62 40 27 16 357 347 323 311 309 309 308 305 302 293 276 264 265 269 267 261 260 262 264 268 278 276 258 259 259 262
31 67 50 20 21 31 47 51 52 47 39 31 21 14 25 20 358 332 315 312 307 300 298 298 298 299 300 292 278 270 270 269 267 267 264 264 264 265 265 270 278 278 269 263
31 48 69 39 33 32 40 53 51 37 27 15 8 360 0 349 328 320 319 317 312 302 298 299 298 301 307 295 281 277 276 274 274 273 270 267 265 263 263 265 268 275 280 274
39 55 62 56 43 36 40 41 36 7 4 359 353 348 343 331 322 320 317 311 304 297 298 296 294 299 304 296 287 283 279 275 275 275 272 269 266 264 264 264 266 268 268 270
57 45 44 31 20 14 10 7 359 349 346 340 337 339 340 334 326 322 319 315 302 294 291 289 292 300 298 290 285 285 285 282 276 273 268 267 267 265 264 264 265 267 268 265
29 10 12 14 358 353 352 351 346 338 327 321 325 326 322 316 310 310 313 313 308 301 295 293 298 300 295 288 283 282 282 281 277 273 271 269 269 267 267 266 267 270 274 270
22 17 8 2 355 346 333 328 326 323 319 317 311 305 303 300 301 305 309 308 303 301 304 307 305 299 291 288 287 278 275 276 276 273 271 271 271 268 266 267 268 270 272 269
6 1 357 348 340 329 318 315 313 310 308 306 300 298 300 301 303 303 302 294 288 291 298 302 302 296 291 286 285 275 272 272 274 276 276 273 272 271 270 269 270 271 270 268
341 337 334 327 321 316 310 305 302 300 303 300 293 292 294 298 300 297 294 295 300 303 300 298 296 292 290 289 286 277 274 274 274 274 274 274 274 274 273 273 272 271 270 270
328 323 317 313 309 306 308 304 296 294 295 295 293 292 293 296 298 292 280 281 296 306 306 296 292 293 298 297 287 283 279 277 276 275 274 274 274 275 276 277 277 277 276 274
316 312 309 306 303 300 302 301 296 293 292 293 292 291 289 289 291 291 295 300 303 306 306 294 297 301 304 299 287 282 280 278 276 275 275 275 275 276 277 278 278 278 278 278
308 307 305 305 303 299 299 304 303 296 291 288 286 287 290 294 293 285 288 301 309 309 303 300 304 305 305 296 286 282 279 277 277 278 278 277 277 277 277 277 278 279 280 281
302 300 300 301 297 293 296 305 307 304 301 299 302 303 296 290 290 301 304 305 310 312 306 304 308 310 305 293 288 285 283 280 281 282 279 280 280 280 278 279 280 281 282 281
301 299 295 292 290 293 299 302 303 305 307 307 310 311 308 302 296 298 301 304 305 308 307 304 304 305 300 294 290 289 288 289 290 287 286 285 282 282 280 280 283 282 282 282
305 304 303 303 303 299 297 294 294 297 299 299 302 306 308 307 304 306 306 304 306 307 306 304 303 301 300 297 295 293 291 291 289 288 287 286 286 286 286 284 283 284 284 283
Height
1441 1440 1441 1442 1442 1446 1447 1440 1439 1433 1435 1435 1438 1442 1445 1447 1448 1450 1451 1452 1453 1455 1457 1458 1460 1461 1463 1465 1466 1468 1470 1471 1473 1475 1476 1477 1479 1480 1481 1482 1483 1484 1484 1485
1443 1441 1440 1439 1436 1437 1438 1438 1436 1435 1434 1435 1439 1443 1445 1446 1447 1448 1449 1450 1451 1453 1454 1455 1457 1458 1460 1462 1463 1465 1466 1468 1469 1471 1472 1473 1474 1476 1476 1477 1478 1479 1479 1480
1438 1439 1439 1434 1428 1429 1430 1430 1431 1430 1430 1437 1439 1440 1441 1443 1444 1445 1446 1447 1448 1450 1451 1453 1454 1456 1457 1459 1460 1462 1463 1465 1466 1467 1468 1469 1470 1471 1472 1473 1474 1474 1475 1475
1440 1439 1435 1422 1425 1425 1425 1427 1429 1429 1431 1434 1436 1438 1440 1441 1442 1443 1444 1445 1446 1447 1449 1450 1452 1453 1455 1456 1457 1459 1460 1461 1462 1463 1464 1465 1466 1467 1468 1469 1469 1469 1470 1470
1437 1429 1422 1423 1426 1426 1426 1425 1428 1429 1431 1434 1436 1437 1438 1439 1440 1441 1442 1442 1443 1445 1446 1448 1449 1451 1452 1454 1455 1456 1457 1458 1459 1460 1460 1461 1462 1463 1463 1464 1464 1464 1465 1465
1433 1428 1422 1420 1424 1424 1426 1424 1427 1427 1428 1431 1433 1434 1435 1438 1438 1439 1440 1440 1441 1442 1444 1445 1447 1448 1450 1451 1452 1452 1453 1454 1455 1456 1456 1457 1457 1458 1458 1458 1459 1459 1459 1459
1429 1426 1420 1423 1424 1424 1424 1420 1424 1425 1426 1429 1430 1431 1434 1436 1437 1437 1438 1439 1440 1441 1442 1444 1445 1446 1447 1448 1449 1450 1450 1451 1451 1452 1452 1452 1453 1453 1453 1453 1453 1453 1453 1453
1427 1426 1424 1425 1424 1423 1422 1423 1423 1424 1426 1428 1429 1431 1433 1434 1435 1436 1437 1438 1438 1439 1441 1442 1443 1444 1444 1445 1446 1446 1447 1447 1447 1448 1448 1448 1448 1448 1448 1448 1448 1447 1447 1447
1426 1427 1428 1427 1426 1425 1424 1424 1424 1425 1427 1428 1429 1431 1433 1434 1435 1435 1436 1437 1437 1438 1439 1440 1441 1442 1442 1442 1443 1443 1443 1443 1443 1444 1444 1444 1443 1443 1443 1443 1442 1442 1441 1441
1429 1428 1429 1428 1427 1426 1426 1426 1426 1427 1428 1429 1430 1431 1432 1433 1434 1435 1436 1436 1437 1437 1438 1439 1439 1440 1440 1440 1440 1440 1440 1440 1440 1439 1439 1439 1439 1438 1438 1437 1437 1436 1436 1435
1429 1430 1430 1429 1429 1428 1428 1428 1428 1429 1430 1431 1431 1432 1433 1433 1434 1434 1435 1436 1436 1436 1437 1437 1437 1437 1438 1437 1437 1437 1436 1436 1436 1436 1435 1434 1434 1433 1433 1433 1432 1432 1431 1431
1429 1431 1431 1431 1431 1430 1429 1430 1430 1430 1431 1432 1432 1433 1433 1433 1434 1434 1434 1435 1435 1435 1435 1435 1435 1435 1435 1435 1434 1433 1433 1432 1432 1431 1430 1430 1429 1428 1427 1427 1427 1427 1426 1426
1432 1432 1432 1432 1432 1431 1431 1431 1431 1431 1431 1432 1432 1433 1433 1433 1434 1434 1434 1434 1434 1434 1434 1434 1433 1433 1432 1432 1431 1430 1429 1428 1427 1427 1426 1425 1424 1423 1422 1421 1421 1421 1420 1420
1432 1432 1432 1432 1432 1432 1432 1432 1432 1432 1432 1432 1432 1433 1433 1433 1433 1433 1433 1433 1433 1432 1432 1431 1431 1430 1429 1428 1427 1426 1425 1424 1423 1422 1422 1421 1420 1419 1418 1417 1415 1414 1414 1414
1433 1433 1433 1433 1433 1433 1433 1432 1432 1432 1432 1432 1432 1432 1432 1432 1431 1431 1431 1431 1431 1430 1429 1429 1428 1427 1426 1425 1423 1422 1421 1420 1419 1418 1417 1416 1415 1414 1413 1412 1411 1410 1408 1408
1434 1434 1434 1434 1433 1433 1433 1432 1432 1432 1432 1432 1431 1431 1431 1430 1430 1430 1429 1429 1428 1427 1426 1425 1424 1423 1422 1421 1419 1418 1417 1415 1414 1413 1412 1411 1410 1409 1408 1407 1406 1405 1404 1403
1435 1435 1434 1434 1434 1433 1433 1432 1432 1432 1431 1431 1430 1430 1429 1429 1428 1427 1427 1426 1425 1424 1423 1421 1420 1419 1418 1417 1415 1414 1412 1411 1410 1408 1407 1406 1405 1404 1403 1402 1401 1400 1399 1398
1436 1436 1435 1435 1434 1433 1432 1432 1431 1431 1430 1429 1429 1428 1427 1426 1425 1424 1423 1422 1421 1420 1419 1417 1416 1415 1414 1412 1411 1409 1408 1406 1405 1404 1403 1402 1401 1400 1399 1397 1396 1395 1394 1393
1436 1436 1435 1435 1434 1433 1432 1431 1430 1429 1429 1428 1427 1426 1425 1423 1422 1421 1420 1418 1417 1415 1414 1413 1412 1410 1409 1408 1407 1405 1404 1402 1401 1400 1398 1397 1396 1395 1394 1393 1392 1390 1389 1388
1436 1435 1435 1434 1433 1432 1431 1430 1429 1428 1427 1425 1424 1423 1421 1420 1419 1418 1416 1414 1413 1412 1410 1409 1407 1406 1405 1404 1402 1401 1399 1398 1397 1395 1394 1393 1391 1390 1389 1388 1387 1385 1384 1383
1435 1434 1433 1432 1431 1430 1429 1428 1427 1425 1424 1422 1421 1419 1418 1417 1416 1414 1412 1410 1409 1408 1406 1405 1403 1402 1400 1399 1398 1396 1395 1394 1392 1391 1389 1388 1387 1385 1384 1383 1382 1380 1379 1378
1434 1432 1431 1430 1429 1427 1426 1425 1424 1422 1420 1419 1417 1416 1414 1413 1412 1410 1408 1407 1405 1404 1402 1400 1399 1397 1396 1395 1393 1392 1391 1389 1388 1387 1385 1384 1382 1381 1379 1378 1377 1375 1374 1373
1432 1430 1429 1427 1426 1424 1423 1422 1420 1418 1417 1415 1414 1412 1411 1409 1408 1406 1404 1403 1401 1399 1397 1396 1394 1393 1392 1390 1389 1388 1386 1385 1383 1382 1381 1379 1378 1376 1375 1373 1372 1370 1369 1368
1429 1427 1426 1424 1422 1421 1419 1418 1416 1415 1413 1412 1410 1409 1407 1405 1404 1403 1401 1399 1397 1395 1393 1392 1390 1389 1388 1386 1385 1383 1382 1381 1379 1378 1377 1375 1374 1372 1371 1369 1368 1366 1365 1363
1425 1423 1422 1420 1418 1417 1415 1414 1412 1411 1409 1408 1406 1405 1404 1402 1401 1399 1397 1395 1393 1391 1389 1388 1386 1385 1383 1382 1381 1379 1378 1376 1375 1374 1372 1371 1370 1368 1367 1365 1364 1362 1361 1359
1421 1419 1418 1416 1415 1413 1412 1410 1408 1407 1405 1404 1403 1401 1400 1399 1397 1395 1393 1391 1389 1387 1385 1384 1382 1381 1379 1378 1377 1375 1374 1373 1371 1370 1369 1368 1366 1365 1364 1362 1360 1359 1357 1356
1417 1416 1414 1412 1411 1409 1408 1406 1405 1403 1402 1400 1399 1398 1396 1395 1393 1391 1389 1387 1386 1384 1382 1380 1378 1377 1375 1374 1373 1372 1370 1369 1368 1367 1365 1364 1363 1362 1360 1359 1357 1356 1354 1353